| time (UTC) | temp F | wind direction | speed MPH | gust MPH | rain 1hr in | rain 24hr in | rain mn in | humidity % | barometer mb |
| 20260905172544 | 76 | 320 | 0.0 | 2.0 | 0.00 | 0.00 | 0.00 | 41 | 1025.8 |
| 20260905171537 | 77 | 14 | 0.0 | 5.0 | 0.00 | 0.00 | 0.00 | 43 | 1025.7 |
| 20260905170527 | 79 | 357 | 0.0 | 2.0 | 0.00 | 0.00 | 0.00 | 41 | 1025.8 |
| 20260905165523 | 80 | 219 | 0.0 | 5.0 | 0.00 | 0.00 | 0.00 | 38 | 1025.7 |
| 20260905164516 | 81 | 301 | 0.0 | 5.0 | 0.00 | 0.00 | 0.00 | 36 | 1025.7 |
| 20260905163526 | 81 | 282 | 0.0 | 2.0 | 0.00 | 0.00 | 0.00 | 36 | 1025.8 |
| 20260905162544 | 81 | 316 | 1.0 | 5.0 | 0.00 | 0.00 | 0.00 | 36 | 1025.8 |
| 20260905161537 | 82 | 337 | 1.0 | 7.0 | 0.00 | 0.00 | 0.00 | 37 | 1025.9 |
| 20260905160527 | 82 | 231 | 0.0 | 2.0 | 0.00 | 0.00 | 0.00 | 37 | 1025.8 |
| 20260905155522 | 82 | 223 | 0.0 | 2.0 | 0.00 | 0.00 | 0.00 | 36 | 1025.8 |
| 20260905154515 | 81 | 237 | 0.0 | 5.0 | 0.00 | 0.00 | 0.00 | 35 | 1025.9 |
| 20260905153528 | 80 | 198 | 0.0 | 5.0 | 0.00 | 0.00 | 0.00 | 36 | 1025.9 |
| 20260905152531 | 80 | 19 | 1.0 | 5.0 | 0.00 | 0.00 | 0.00 | 38 | 1025.8 |
| 20260905151523 | 81 | 285 | 1.0 | 5.0 | 0.00 | 0.00 | 0.00 | 38 | 1025.9 |
| 20260905150515 | 81 | 327 | 1.0 | 5.0 | 0.00 | 0.00 | 0.00 | 36 | 1026.0 |
| 20260905145547 | 80 | 186 | 0.0 | 5.0 | 0.00 | 0.00 | 0.00 | 36 | 1026.2 |
| 20260905144523 | 80 | 323 | 0.0 | 2.0 | 0.00 | 0.00 | 0.00 | 37 | 1026.0 |
| 20260905143518 | 80 | 305 | 1.0 | 7.0 | 0.00 | 0.00 | 0.00 | 39 | 1026.1 |
| 20260905142526 | 80 | 188 | 1.0 | 5.0 | 0.00 | 0.00 | 0.00 | 38 | 1026.1 |
| 20260905141522 | 79 | 247 | 1.0 | 5.0 | 0.00 | 0.00 | 0.00 | 39 | 1026.1 |
| 20260905140612 | 79 | 233 | 1.0 | 5.0 | 0.00 | 0.00 | 0.00 | 37 | 1026.0 |
| 20260905135607 | 78 | 110 | 0.0 | 2.0 | 0.00 | 0.00 | 0.00 | 39 | 1026.0 |
| 20260905134526 | 77 | 156 | 1.0 | 5.0 | 0.00 | 0.00 | 0.00 | 40 | 1026.0 |
| 20260905133522 | 77 | 5 | 1.0 | 5.0 | 0.00 | 0.00 | 0.00 | 40 | 1025.9 |
| 20260905132530 | 77 | 298 | 1.0 | 5.0 | 0.00 | 0.00 | 0.00 | 41 | 1025.9 |
| 20260905131517 | 76 | 256 | 1.0 | 10.0 | 0.00 | 0.00 | 0.00 | 42 | 1025.8 |
| 20260905130527 | 75 | 278 | 1.0 | 5.0 | 0.00 | 0.00 | 0.00 | 42 | 1025.9 |
| 20260905125522 | 75 | 111 | 1.0 | 5.0 | 0.00 | 0.00 | 0.00 | 43 | 1025.9 |
| 20260905124517 | 75 | 350 | 2.0 | 7.0 | 0.00 | 0.00 | 0.00 | 45 | 1025.8 |
| 20260905123527 | 75 | 17 | 0.0 | 5.0 | 0.00 | 0.00 | 0.00 | 44 | 1025.9 |
| 20260905122524 | 74 | 322 | 1.0 | 5.0 | 0.00 | 0.00 | 0.00 | 44 | 1025.8 |
| 20260905121516 | 74 | 197 | 1.0 | 5.0 | 0.00 | 0.00 | 0.00 | 45 | 1025.7 |
| 20260905120526 | 74 | 352 | 1.0 | 10.0 | 0.00 | 0.00 | 0.00 | 46 | 1025.8 |
| 20260905115542 | 74 | 325 | 2.0 | 7.0 | 0.00 | 0.00 | 0.00 | 46 | 1025.6 |
| 20260905114530 | 74 | 346 | 2.0 | 10.0 | 0.00 | 0.00 | 0.00 | 46 | 1025.8 |
| 20260905113526 | 73 | 150 | 1.0 | 5.0 | 0.00 | 0.00 | 0.00 | 47 | 1025.8 |
| 20260905112522 | 72 | 294 | 1.0 | 7.0 | 0.00 | 0.00 | 0.00 | 47 | 1026.0 |
| 20260905111526 | 71 | 23 | 1.0 | 5.0 | 0.00 | 0.00 | 0.00 | 46 | 1025.9 |
| 20260905110517 | 71 | 99 | 0.0 | 5.0 | 0.00 | 0.00 | 0.00 | 49 | 1025.9 |
| 20260905105526 | 71 | 290 | 1.0 | 7.0 | 0.00 | 0.00 | 0.00 | 53 | 1026.0 |
| 20260905104522 | 71 | 337 | 1.0 | 7.0 | 0.00 | 0.00 | 0.00 | 50 | 1025.9 |
| 20260905103518 | 70 | 304 | 1.0 | 7.0 | 0.00 | 0.00 | 0.00 | 52 | 1025.8 |
| 20260905102529 | 69 | 320 | 1.0 | 5.0 | 0.00 | 0.00 | 0.00 | 54 | 1025.9 |
| 20260905101522 | 69 | 329 | 1.0 | 10.0 | 0.00 | 0.00 | 0.00 | 56 | 1025.8 |
| 20260905100528 | 69 | 250 | 1.0 | 5.0 | 0.00 | 0.00 | 0.00 | 58 | 1025.8 |
| 20260905095602 | 69 | 287 | 0.0 | 5.0 | 0.00 | 0.00 | 0.00 | 58 | 1025.7 |
| 20260905094530 | 68 | 295 | 1.0 | 7.0 | 0.00 | 0.00 | 0.00 | 58 | 1025.6 |
| 20260905093526 | 67 | 317 | 1.0 | 10.0 | 0.00 | 0.00 | 0.00 | 60 | 1025.6 |
| 20260905092641 | 66 | 290 | 1.0 | 7.0 | 0.00 | 0.00 | 0.00 | 61 | 1025.6 |
| 20260905091536 | 65 | 308 | 2.0 | 10.0 | 0.00 | 0.00 | 0.00 | 64 | 1025.6 |
| 20260905090528 | 64 | 327 | 0.0 | 5.0 | 0.00 | 0.00 | 0.00 | 65 | 1025.5 |
| 20260905085606 | 63 | 316 | 0.0 | 5.0 | 0.00 | 0.00 | 0.00 | 68 | 1025.4 |
| 20260905084522 | 63 | 276 | 0.0 | 5.0 | 0.00 | 0.00 | 0.00 | 70 | 1025.3 |
| 20260905083516 | 62 | 296 | 1.0 | 5.0 | 0.00 | 0.00 | 0.00 | 71 | 1025.2 |
| 20260905082526 | 62 | 269 | 0.0 | 5.0 | 0.00 | 0.00 | 0.00 | 73 | 1025.2 |
| 20260905081521 | 61 | 139 | 0.0 | 2.0 | 0.00 | 0.00 | 0.00 | 74 | 1025.2 |
| 20260905080551 | 60 | 289 | 0.0 | 5.0 | 0.00 | 0.00 | 0.00 | 76 | 1025.0 |
| 20260905075527 | 59 | 32 | 0.0 | 5.0 | 0.00 | 0.00 | 0.00 | 79 | 1025.1 |
| 20260905074522 | 58 | 34 | 0.0 | 2.0 | 0.00 | 0.02 | 0.00 | 81 | 1025.1 |
| 20260905073517 | 57 | 84 | 0.0 | 2.0 | 0.00 | 0.04 | 0.00 | 82 | 1024.9 |
| 20260905072526 | 56 | 260 | 0.0 | 2.0 | 0.00 | 0.04 | 0.00 | 85 | 1024.9 |
| 20260905071522 | 55 | 30 | 0.0 | 0.0 | 0.00 | 0.04 | 0.00 | 87 | 1024.8 |
| 20260905070530 | 55 | 174 | 0.0 | 0.0 | 0.00 | 0.04 | 0.00 | 90 | 1024.6 |
| 20260905065522 | 54 | 333 | 0.0 | 2.0 | 0.00 | 0.04 | 0.00 | 92 | 1024.6 |
| 20260905064530 | 54 | 69 | 0.0 | 2.0 | 0.00 | 0.04 | 0.00 | 95 | 1024.5 |
| 20260905063546 | 53 | 188 | 0.0 | 2.0 | 0.00 | 0.04 | 0.00 | 96 | 1024.4 |
| 20260905062522 | 52 | 157 | 0.0 | 2.0 | 0.00 | 0.04 | 0.00 | 97 | 1024.3 |
| 20260905061529 | 51 | 283 | 0.0 | 0.0 | 0.00 | 0.04 | 0.00 | 97 | 1024.2 |
| 20260905060522 | 50 | 176 | 0.0 | 2.0 | 0.00 | 0.04 | 0.00 | 97 | 1024.1 |
| 20260905055529 | 50 | 221 | 0.0 | 2.0 | 0.00 | 0.04 | 0.00 | 97 | 1023.8 |
| 20260905054526 | 50 | 167 | 0.0 | 0.0 | 0.00 | 0.04 | 0.00 | 96 | 1023.7 |
| 20260905053518 | 50 | 123 | 0.0 | 0.0 | 0.00 | 0.04 | 0.00 | 96 | 1023.6 |
| 20260905052607 | 50 | 131 | 0.0 | 0.0 | 0.00 | 0.04 | 0.00 | 96 | 1023.4 |
| 20260905051523 | 50 | 90 | 0.0 | 0.0 | 0.00 | 0.04 | 0.00 | 96 | 1023.4 |
| 20260905050529 | 51 | 163 | 0.0 | 0.0 | 0.00 | 0.04 | 0.00 | 95 | 1023.3 |
| 20260905045546 | 51 | 136 | 0.0 | 0.0 | 0.00 | 0.04 | 0.00 | 95 | 1023.4 |
| 20260905044522 | 51 | 134 | 0.0 | 0.0 | 0.00 | 0.04 | 0.00 | 95 | 1023.1 |
| 20260905043516 | 51 | 123 | 0.0 | 0.0 | 0.00 | 0.04 | 0.00 | 94 | 1023.0 |
| 20260905042522 | 52 | 121 | 0.0 | 0.0 | 0.00 | 0.04 | 0.00 | 94 | 1023.0 |
| 20260905041536 | 52 | 133 | 0.0 | 0.0 | 0.00 | 0.04 | 0.00 | 94 | 1023.1 |
| 20260905040526 | 52 | 120 | 0.0 | 0.0 | 0.00 | 0.04 | 0.00 | 93 | 1023.0 |
| 20260905035521 | 53 | 55 | 0.0 | 0.0 | 0.00 | 0.04 | 0.00 | 93 | 1022.9 |
| 20260905034515 | 53 | 66 | 0.0 | 2.0 | 0.00 | 0.04 | 0.00 | 93 | 1022.6 |
| 20260905033527 | 53 | 356 | 0.0 | 2.0 | 0.00 | 0.04 | 0.00 | 93 | 1022.5 |
| 20260905032521 | 53 | 184 | 0.0 | 2.0 | 0.00 | 0.04 | 0.00 | 93 | 1022.5 |
| 20260905031516 | 53 | 211 | 0.0 | 2.0 | 0.00 | 0.04 | 0.00 | 93 | 1022.5 |
| 20260905030526 | 53 | 180 | 0.0 | 0.0 | 0.00 | 0.04 | 0.00 | 93 | 1022.3 |
| 20260905025703 | 53 | 58 | 0.0 | 2.0 | 0.00 | 0.04 | 0.00 | 93 | 1022.3 |
| 20260905024610 | 53 | 221 | 0.0 | 2.0 | 0.00 | 0.04 | 0.00 | 93 | 1022.2 |
| 20260905023526 | 53 | 173 | 0.0 | 2.0 | 0.00 | 0.04 | 0.00 | 93 | 1022.1 |
| 20260905022555 | 53 | 244 | 0.0 | 2.0 | 0.00 | 0.04 | 0.00 | 93 | 1022.1 |
| 20260905021526 | 53 | 174 | 0.0 | 0.0 | 0.00 | 0.04 | 0.00 | 92 | 1021.9 |
| 20260905020601 | 53 | 158 | 0.0 | 0.0 | 0.00 | 0.04 | 0.00 | 92 | 1022.0 |
| 20260905015612 | 53 | 268 | 0.0 | 2.0 | 0.00 | 0.04 | 0.00 | 92 | 1021.9 |
| 20260905014526 | 53 | 119 | 0.0 | 2.0 | 0.00 | 0.04 | 0.00 | 92 | 1021.9 |
| 20260905013523 | 53 | 201 | 0.0 | 2.0 | 0.00 | 0.04 | 0.00 | 92 | 1021.9 |
| 20260905012531 | 53 | 143 | 0.0 | 0.0 | 0.00 | 0.04 | 0.00 | 91 | 1021.9 |
| 20260905011526 | 53 | 117 | 0.0 | 0.0 | 0.00 | 0.04 | 0.00 | 91 | 1021.7 |
| 20260905010543 | 53 | 133 | 0.0 | 2.0 | 0.00 | 0.04 | 0.00 | 91 | 1021.5 |
| 20260905005531 | 54 | 137 | 0.0 | 0.0 | 0.00 | 0.04 | 0.00 | 90 | 1021.7 |
| 20260905004525 | 54 | 133 | 0.0 | 2.0 | 0.00 | 0.04 | 0.00 | 89 | 1021.7 |
| 20260905003521 | 54 | 254 | 0.0 | 2.0 | 0.00 | 0.04 | 0.00 | 89 | 1021.8 |
| 20260905002521 | 55 | 196 | 0.0 | 0.0 | 0.00 | 0.04 | 0.00 | 88 | 1021.6 |
| 20260905001532 | 55 | 77 | 0.0 | 0.0 | 0.00 | 0.04 | 0.00 | 88 | 1021.6 |
| 20260905000527 | 55 | 68 | 0.0 | 0.0 | 0.00 | 0.04 | 0.00 | 87 | 1021.4 |
| 20260904235522 | 55 | 168 | 0.0 | 0.0 | 0.00 | 0.04 | 0.00 | 87 | 1021.3 |
| 20260904234529 | 55 | 296 | 0.0 | 2.0 | 0.00 | 0.04 | 0.00 | 86 | 1021.4 |
| 20260904233525 | 55 | 320 | 0.0 | 2.0 | 0.00 | 0.04 | 0.00 | 86 | 1021.3 |
| 20260904232521 | 55 | 326 | 0.0 | 5.0 | 0.00 | 0.04 | 0.00 | 86 | 1021.3 |
| 20260904231536 | 55 | 164 | 0.0 | 2.0 | 0.00 | 0.04 | 0.00 | 86 | 1021.2 |
| 20260904230525 | 55 | 112 | 0.0 | 2.0 | 0.00 | 0.04 | 0.00 | 86 | 1021.1 |
| 20260904225521 | 55 | 98 | 0.0 | 0.0 | 0.00 | 0.04 | 0.04 | 86 | 1021.0 |
| 20260904224551 | 55 | 175 | 0.0 | 0.0 | 0.00 | 0.04 | 0.04 | 86 | 1021.0 |
| 20260904223527 | 55 | 91 | 0.0 | 0.0 | 0.00 | 0.04 | 0.04 | 85 | 1020.9 |
| 20260904222521 | 55 | 175 | 0.0 | 0.0 | 0.00 | 0.04 | 0.04 | 86 | 1020.7 |
| 20260904221529 | 56 | 80 | 0.0 | 0.0 | 0.00 | 0.04 | 0.04 | 85 | 1020.9 |
| 20260904220528 | 56 | 165 | 0.0 | 0.0 | 0.00 | 0.04 | 0.04 | 85 | 1020.8 |
| 20260904215521 | 56 | 113 | 0.0 | 0.0 | 0.00 | 0.04 | 0.04 | 84 | 1020.8 |
| 20260904214525 | 57 | 67 | 0.0 | 0.0 | 0.00 | 0.04 | 0.04 | 83 | 1020.9 |
| 20260904213521 | 57 | 103 | 0.0 | 0.0 | 0.00 | 0.04 | 0.04 | 83 | 1020.8 |
| 20260904212529 | 57 | 237 | 0.0 | 0.0 | 0.00 | 0.04 | 0.04 | 82 | 1020.7 |
| 20260904211526 | 58 | 323 | 0.0 | 2.0 | 0.00 | 0.04 | 0.04 | 82 | 1020.7 |
| 20260904210523 | 58 | 80 | 0.0 | 0.0 | 0.00 | 0.04 | 0.04 | 81 | 1020.5 |
| 20260904205530 | 59 | 58 | 0.0 | 0.0 | 0.00 | 0.04 | 0.04 | 80 | 1020.4 |
| 20260904204629 | 59 | 99 | 0.0 | 0.0 | 0.00 | 0.04 | 0.04 | 79 | 1020.4 |
| 20260904203515 | 60 | 247 | 0.0 | 2.0 | 0.00 | 0.04 | 0.04 | 79 | 1020.5 |
| 20260904202520 | 60 | 132 | 0.0 | 0.0 | 0.00 | 0.04 | 0.04 | 77 | 1020.4 |
| 20260904201515 | 61 | 168 | 0.0 | 5.0 | 0.00 | 0.04 | 0.04 | 77 | 1020.3 |
| 20260904200527 | 61 | 15 | 0.0 | 2.0 | 0.00 | 0.04 | 0.04 | 76 | 1020.3 |
| 20260904195518 | 61 | 333 | 0.0 | 2.0 | 0.00 | 0.04 | 0.04 | 76 | 1020.3 |
| 20260904194530 | 62 | 211 | 0.0 | 7.0 | 0.00 | 0.04 | 0.04 | 75 | 1020.1 |
| 20260904193525 | 62 | 287 | 0.0 | 5.0 | 0.00 | 0.04 | 0.04 | 74 | 1019.9 |
| 20260904192519 | 63 | 21 | 0.0 | 2.0 | 0.00 | 0.04 | 0.04 | 73 | 1019.7 |
| 20260904191530 | 64 | 313 | 0.0 | 2.0 | 0.00 | 0.04 | 0.04 | 71 | 1019.3 |
| 20260904190525 | 64 | 319 | 1.0 | 10.0 | 0.00 | 0.04 | 0.04 | 70 | 1019.3 |
| 20260904185538 | 65 | 178 | 0.0 | 2.0 | 0.00 | 0.04 | 0.04 | 69 | 1019.0 |
| 20260904184529 | 65 | 285 | 1.0 | 7.0 | 0.00 | 0.04 | 0.04 | 67 | 1018.8 |
| 20260904183522 | 65 | 183 | 1.0 | 7.0 | 0.00 | 0.04 | 0.04 | 66 | 1018.6 |
| 20260904182517 | 65 | 256 | 1.0 | 7.0 | 0.00 | 0.04 | 0.04 | 65 | 1018.6 |
| 20260904181554 | 65 | 238 | 0.0 | 2.0 | 0.00 | 0.04 | 0.04 | 63 | 1018.4 |
| 20260904180531 | 66 | 321 | 1.0 | 5.0 | 0.00 | 0.04 | 0.04 | 62 | 1018.4 |
| 20260904175519 | 66 | 332 | 1.0 | 5.0 | 0.00 | 0.04 | 0.04 | 62 | 1018.1 |
| 20260904174529 | 66 | 304 | 1.0 | 7.0 | 0.00 | 0.04 | 0.04 | 61 | 1018.2 |
| 20260904173523 | 66 | 290 | 1.0 | 7.0 | 0.00 | 0.04 | 0.04 | 61 | 1018.0 |